Ariane H10 - Orbit

View from above orbital plane
View from above orbital plane
View from above satellite
View from above satellite

Ground track
Ground track

The orbit data is extracted from the following two-line orbital elements,

1 21815U 91084C   13142.11245887  .00000322  00000-0  94923-3 0  2806
2 21815 004.3781 336.7870 7207507 299.6049 349.4927 02.30384048177929
Epoch (UTC): 22 May 2013 02:41:56
Eccentricity: 0.7207507
inclination: 4.3781°
perigee height: 384 km
apogee height: 35291 km
right ascension of ascending node: 336.7870°
argument of perigee: 299.6049°
revolutions per day: 2.30384048
mean anomaly at epoch: 349.4927°
orbit number at epoch: 17792

The dashed part of the orbit path shows where the satellite is in the earth's shadow,  

Developed and maintained by Chris Peat, Heavens-Above GmbH. Please read the updated FAQ before sending e-mail. Imprint. DLR